Back to catalog

STARLINK-4275

AliveCommunicationsVLEO
NORAD 53008·PAYLOAD·🇺🇸 United States

Launched Jul 7, 2022 from Cape Canaveral Space Force Station

Loading…

Next Passes (next 24 hours)

TLE

FreshSource: CelesTrak SupGP

Epoch: Sep 14, 2026, 14:02 UTC

1 53008C 22076Y   26257.58520833  .00052669  00000+0  15069-2 0  2576
2 53008  53.1577 311.3787 0001079  82.6414  33.6616 15.35372754    16

Track STARLINK-4275 in real time with AllMySat

Download on the App Store